This is the latest recevied weather packets stored in our database for station/object HS3UAA-1. If no packets are shown the sender has not sent any weather packets the latest 10 day(s).
| Time | Temp. | Humidity | Pressure | Rain* | Wind** | Luminosity | Snow |
|---|---|---|---|---|---|---|---|
| 1788138810 | 29.44° C | 52% | 997 hPa | - | - | 0 W/m² | - |
| 1788138489 | 29.44° C | 53% | 997 hPa | - | - | 0 W/m² | - |
| 1788138166 | 29.44° C | 52% | 996 hPa | - | - | 0 W/m² | - |
| 1788137844 | 29.44° C | 51% | 996 hPa | - | - | 0 W/m² | - |
| 1788137522 | 29.44° C | 49% | 996 hPa | - | - | 0 W/m² | - |
| 1788137200 | 29.44° C | 48% | 996 hPa | - | - | 0 W/m² | - |
| 1788136878 | 29.44° C | 49% | 996 hPa | - | - | 0 W/m² | - |
| 1788136556 | 29.44° C | 50% | 996 hPa | - | - | 0 W/m² | - |
| 1788136234 | 30° C | 50% | 996 hPa | - | - | 0 W/m² | - |
| 1788135911 | 29.44° C | 49% | 996 hPa | - | - | 0 W/m² | - |
| 1788135589 | 30° C | 46% | 996 hPa | - | - | 0 W/m² | - |
| 1788135267 | 30° C | 46% | 996 hPa | - | - | 0 W/m² | - |
| 1788134945 | 30.56° C | 47% | 996 hPa | - | - | 0 W/m² | - |
| 1788134623 | 30.56° C | 43% | 996 hPa | - | - | 0 W/m² | - |
| 1788134301 | 31.11° C | 42% | 996 hPa | - | - | 0 W/m² | - |
| 1788133979 | 32.22° C | 45% | 996 hPa | - | - | 0 W/m² | - |
| 1788133657 | 33.89° C | 49% | 996 hPa | - | - | 0 W/m² | - |
| 1788133335 | 34.44° C | 48% | 996 hPa | - | - | 0 W/m² | - |
| 1788133013 | 33.89° C | 51% | 996 hPa | - | - | 0 W/m² | - |
| 1788132691 | 33.89° C | 51% | 996 hPa | - | - | 0 W/m² | - |
| 1788132369 | 34.44° C | 50% | 996 hPa | - | - | 0 W/m² | - |
| 1788132047 | 33.33° C | 52% | 995 hPa | - | - | 0 W/m² | - |
| 1788131725 | 33.33° C | 52% | 995 hPa | - | - | 0 W/m² | - |
| 1788131403 | 33.89° C | 51% | 995 hPa | - | - | 0 W/m² | - |
| 1788131081 | 33.89° C | 51% | 995 hPa | - | - | 0 W/m² | - |
* Rain since midnight (hover to see other rain measurements)
** Current wind speed in m/s (hover to see current wind gust speed)